Погода в Гилзе-эн-Рейене

Нидерланды     51°33′44″N   4°54′41″E
темп.,
°C
ветер,
м/с
пор.,
м/с
влажн.,
%
обл.,
%
осадки,
мм/ч
давл.,
гПа
погр.,
м
23 апреля, пт
пт2323:00+5ссв37786 0.0 1029190
02:00+3ссв34887 0.0 102969
05:00+2св22925 0.0 102933
08:00+3св23810 0.0 1030137
11:00+9св34525 0.0 1030800
14:00+13св34425 0.0 10291210
17:00+14св44415 0.0 10281376
20:00+10св36575 0.0 1028160
24 апреля, сб
сб2423:00+5ссв48715 0.0 1029176
02:00+4св388286 0.0 1029176
05:00+3св3688100 0.0 1028128
08:00+4св3679100 0.0 1028201
11:00+9св4558100 0.0 1028708
14:00+12ссв5651100 0.0 10271223
17:00+13ссв565067 0.0 10261433
20:00+9с61067100 0.0 1027551
25 апреля, вс
вс2523:00+6св5107016 0.0 1028379
02:00+3св49810 0.0 1028290
05:00+1св39870 0.0 1028234
08:00+3св47795 0.0 1028304
11:00+8св56540 0.0 1028825
14:00+12св56425 0.0 10261113
17:00+13св45415 0.0 10241470
20:00+9ссв6967100 0.0 1024468
26 апреля, пн
пн2623:00+5ссв5117249 0.0 1024333
02:00+3св49830 0.0 1024220
05:00+1св37920 0.0 1022167
08:00+3св48845 0.0 1021309
11:00+9св565993 0.0 1020880
14:00+12всв5643100 0.0 10171292
17:00+13всв5649100 0.0 10151476
20:00+10всв71067100 0.0 1013716
27 апреля, вт
вт2723:00+7св51173100 0.0 1013490
02:00+7св51174100 0.0 1011472
05:00+6св51082100 0.0 1010380
08:00+6ссв51079100 0.0 1009402
11:00+10св6860100 0.0 1008862
14:00+13св664783 0.0 10061525
17:00+14св554466 0.0 10051892
20:00+11св4756100 0.0 1005315